User: anonymous   Login
Location: Unspecified
(0.0000°N, 0.0000°E)
Time: 14:33:02
(UTC+01:00)
Language:

Meteor 1-31 Rocket - Orbit

View from above orbital plane
View from above orbital plane
View from above satellite
View from above satellite

Ground track
Ground track

The orbit data is extracted from the following two-line orbital elements,

1 12586U 81065B   14355.17091525  .00006841  00000-0  45572-3 0  5463
2 12586 097.4131 346.9305 0022494 082.7204 277.6580 15.07198954819410
Epoch (UTC): 21 December 2014 04:06:07
Eccentricity: 0.0022494
inclination: 97.4131°
perigee height: 529 km
apogee height: 560 km
right ascension of ascending node: 346.9305°
argument of perigee: 82.7204°
revolutions per day: 15.07198954
mean anomaly at epoch: 277.6580°
orbit number at epoch: 81941

The dashed part of the orbit path shows where the satellite is in the earth's shadow,  

DLR